Time,TemperatureF,DewpointF,PressureIn,WindDirection,WindDirectionDegrees,WindSpeedMPH,WindSpeedGustMPH,Humidity,HourlyPrecipIn,Conditions,Clouds,dailyrainin,SoftwareType,DateUTC
2013-05-25 00:00:00,72.1,23.5,17.72,SSW,206,0.0,8.7,16,0.00,,---,0.00,VWS V13.01,2013-05-25 07:00:00,
2013-05-25 00:20:00,71.2,24.2,17.72,South,178,0.0,0.0,17,0.00,,---,0.00,VWS V13.01,2013-05-25 07:20:00,
2013-05-25 00:40:00,71.1,24.1,17.72,SW,221,4.0,5.8,17,0.00,,---,0.00,VWS V13.01,2013-05-25 07:40:00,
2013-05-25 01:00:00,70.0,23.2,17.72,NNE,29,2.7,7.6,17,0.00,,---,0.00,VWS V13.01,2013-05-25 08:00:00,
2013-05-25 01:20:00,67.8,21.5,17.72,NW,305,2.7,5.4,17,0.00,,---,0.00,VWS V13.01,2013-05-25 08:20:00,
2013-05-25 01:40:00,66.9,20.7,17.72,North,0,3.1,3.6,17,0.00,,---,0.00,VWS V13.01,2013-05-25 08:40:00,
2013-05-25 02:00:00,65.3,20.7,17.72,NW,320,0.0,3.6,18,0.00,,---,0.00,VWS V13.01,2013-05-25 09:00:00,
2013-05-25 02:20:00,64.4,20.0,17.72,NNW,329,0.0,0.0,18,0.00,,---,0.00,VWS V13.01,2013-05-25 09:20:00,
2013-05-25 02:40:00,63.7,19.4,17.72,NW,326,0.0,3.1,18,0.00,,---,0.00,VWS V13.01,2013-05-25 09:40:00,
2013-05-25 03:00:00,62.4,19.6,17.72,NW,309,0.0,0.0,19,0.00,,---,0.00,VWS V13.01,2013-05-25 10:00:00,
2013-05-25 03:20:00,62.2,19.5,17.72,NW,308,0.0,4.9,19,0.00,,---,0.00,VWS V13.01,2013-05-25 10:20:00,
2013-05-25 03:40:00,61.0,18.5,17.72,WSW,238,0.0,0.0,19,0.00,,---,0.00,VWS V13.01,2013-05-25 10:40:00,
2013-05-25 04:00:00,60.3,17.9,17.72,SW,236,0.0,0.0,19,0.00,,---,0.00,VWS V13.01,2013-05-25 11:00:00,
2013-05-25 04:20:00,59.5,17.3,17.72,SW,230,0.0,0.0,19,0.00,,---,0.00,VWS V13.01,2013-05-25 11:20:00,
2013-05-25 04:40:00,59.4,17.1,17.72,SW,219,3.1,4.0,19,0.00,,---,0.00,VWS V13.01,2013-05-25 11:40:00,
2013-05-25 05:00:00,59.0,16.8,17.72,SW,221,3.6,5.4,19,0.00,,---,0.00,VWS V13.01,2013-05-25 12:00:00,
2013-05-25 05:20:00,59.2,17.0,17.72,SW,218,2.7,4.9,19,0.00,,---,0.00,VWS V13.01,2013-05-25 12:20:00,
2013-05-25 05:40:00,59.0,16.8,17.72,SW,217,0.0,2.7,19,0.00,,---,0.00,VWS V13.01,2013-05-25 12:40:00,
2013-05-25 06:00:00,58.8,16.7,17.72,SW,229,3.6,4.0,19,0.00,,---,0.00,VWS V13.01,2013-05-25 13:00:00,
2013-05-25 06:20:00,59.4,17.1,17.72,SW,230,2.2,3.6,19,0.00,,---,0.00,VWS V13.01,2013-05-25 13:20:00,
2013-05-25 06:40:00,60.6,18.2,17.72,West,274,2.2,3.6,19,0.00,,---,0.00,VWS V13.01,2013-05-25 13:40:00,
2013-05-25 07:00:00,62.6,18.5,17.72,West,273,0.0,3.1,18,0.00,,---,0.00,VWS V13.01,2013-05-25 14:00:00,
2013-05-25 07:20:00,66.4,20.3,17.72,SE,135,3.6,4.9,17,0.00,,---,0.00,VWS V13.01,2013-05-25 14:20:00,
2013-05-25 07:40:00,68.4,21.9,17.72,SE,133,2.2,4.9,17,0.00,,---,0.00,VWS V13.01,2013-05-25 14:40:00,
2013-05-25 08:00:00,69.8,23.1,17.72,NNE,33,3.6,4.5,17,0.00,,---,0.00,VWS V13.01,2013-05-25 15:00:00,
2013-05-25 08:20:00,72.1,23.5,17.72,SE,131,3.1,5.4,16,0.00,,---,0.00,VWS V13.01,2013-05-25 15:20:00,
2013-05-25 08:40:00,73.4,24.5,17.72,NNE,30,0.0,8.1,16,0.00,,---,0.00,VWS V13.01,2013-05-25 15:40:00,
2013-05-25 09:00:00,75.2,24.4,17.72,SSE,155,2.2,6.3,15,0.00,,---,0.00,VWS V13.01,2013-05-25 16:00:00,
2013-05-25 09:20:00,76.8,25.7,17.72,SE,132,4.0,8.3,15,0.00,,---,0.00,VWS V13.01,2013-05-25 16:20:00,
2013-05-25 09:40:00,77.7,26.4,17.72,ESE,113,5.8,11.0,15,0.00,,---,0.00,VWS V13.01,2013-05-25 16:40:00,
2013-05-25 10:00:00,79.5,27.9,17.72,SE,137,6.3,14.5,15,0.00,,---,0.00,VWS V13.01,2013-05-25 17:00:00,
2013-05-25 10:20:00,80.6,27.0,17.72,SSE,167,4.0,13.2,14,0.00,,---,0.00,VWS V13.01,2013-05-25 17:20:00,
2013-05-25 10:40:00,81.5,27.8,17.72,South,186,3.6,13.2,14,0.00,,---,0.00,VWS V13.01,2013-05-25 17:40:00,
2013-05-25 11:00:00,82.8,28.8,17.72,SSE,165,4.0,15.4,14,0.00,,---,0.00,VWS V13.01,2013-05-25 18:00:00,
2013-05-25 11:20:00,83.3,29.2,17.72,SW,216,2.2,15.0,14,0.00,,---,0.00,VWS V13.01,2013-05-25 18:20:00,
2013-05-25 11:40:00,84.2,28.1,17.72,SSW,192,0.0,11.0,13,0.00,,---,0.00,VWS V13.01,2013-05-25 18:40:00,
2013-05-25 12:00:00,86.4,29.8,17.72,SSW,195,2.7,18.8,13,0.00,,---,0.00,VWS V13.01,2013-05-25 19:00:00,
2013-05-25 12:20:00,87.1,30.3,17.72,SW,217,6.7,11.0,13,0.00,,---,0.00,VWS V13.01,2013-05-25 19:20:00,
2013-05-25 12:40:00,88.2,31.2,17.72,South,184,2.7,10.5,13,0.00,,---,0.00,VWS V13.01,2013-05-25 19:40:00,
2013-05-25 13:00:00,89.4,32.2,17.72,SW,216,5.8,10.1,13,0.00,,---,0.00,VWS V13.01,2013-05-25 20:00:00,
2013-05-25 13:20:00,89.6,30.3,17.72,SSE,160,4.0,10.1,12,0.00,,---,0.00,VWS V13.01,2013-05-25 20:20:00,
2013-05-25 13:40:00,90.9,31.3,17.72,South,190,3.6,9.2,12,0.00,,---,0.00,VWS V13.01,2013-05-25 20:40:00,
2013-05-25 14:00:00,91.8,32.0,17.72,SSW,192,5.4,10.5,12,0.00,,---,0.00,VWS V13.01,2013-05-25 21:00:00,
2013-05-25 14:20:00,91.9,32.1,17.72,SSW,198,5.4,11.0,12,0.00,,---,0.00,VWS V13.01,2013-05-25 21:20:00,
2013-05-25 14:40:00,91.6,31.9,17.72,SSW,209,3.1,14.5,12,0.00,,---,0.00,VWS V13.01,2013-05-25 21:40:00,
2013-05-25 15:00:00,91.8,32.0,17.72,WSW,243,8.7,14.5,12,0.00,,---,0.00,VWS V13.01,2013-05-25 22:00:00,
2013-05-25 15:20:00,91.6,31.9,17.72,South,187,5.8,15.4,12,0.00,,---,0.00,VWS V13.01,2013-05-25 22:20:00,
2013-05-25 15:40:00,90.7,31.2,17.72,WNW,283,10.1,15.9,12,0.00,,---,0.00,VWS V13.01,2013-05-25 22:40:00,
2013-05-25 16:00:00,90.1,30.7,17.72,SSW,211,8.7,16.8,12,0.00,,---,0.00,VWS V13.01,2013-05-25 23:00:00,
2013-05-25 16:20:00,90.0,30.6,17.72,SW,219,8.1,14.5,12,0.00,,---,0.00,VWS V13.01,2013-05-25 23:20:00,
2013-05-25 16:40:00,89.2,32.0,17.72,SW,218,11.0,14.5,13,0.00,,---,0.00,VWS V13.01,2013-05-25 23:40:00,
2013-05-25 17:00:00,88.3,31.3,17.72,SSW,210,7.6,12.3,13,0.00,,---,0.00,VWS V13.01,2013-05-26 00:00:00,
2013-05-25 17:20:00,86.2,29.6,17.72,WSW,246,5.8,12.3,13,0.00,,---,0.00,VWS V13.01,2013-05-26 00:20:00,
2013-05-25 17:40:00,85.3,28.9,17.72,SW,228,4.9,11.0,13,0.00,,---,0.00,VWS V13.01,2013-05-26 00:40:00,
2013-05-25 18:00:00,84.4,28.2,17.72,SW,223,8.3,11.9,13,0.00,,---,0.00,VWS V13.01,2013-05-26 01:00:00,
2013-05-25 18:20:00,83.5,29.3,17.72,SW,234,5.8,12.8,14,0.00,,---,0.00,VWS V13.01,2013-05-26 01:20:00,
2013-05-25 18:40:00,82.2,28.3,17.72,SW,219,6.7,11.0,14,0.00,,---,0.00,VWS V13.01,2013-05-26 01:40:00,
2013-05-25 19:00:00,81.1,27.5,17.72,WSW,237,7.2,10.1,14,0.00,,---,0.00,VWS V13.01,2013-05-26 02:00:00,
2013-05-25 19:20:00,79.9,28.1,17.72,WSW,237,5.8,10.5,15,0.00,,---,0.00,VWS V13.01,2013-05-26 02:20:00,
2013-05-25 19:40:00,78.8,27.3,17.72,WSW,238,5.8,10.5,15,0.00,,---,0.00,VWS V13.01,2013-05-26 02:40:00,
2013-05-25 20:00:00,77.9,26.6,17.72,SW,218,4.9,8.3,15,0.00,,---,0.00,VWS V13.01,2013-05-26 03:00:00,
2013-05-25 20:20:00,77.0,25.9,17.72,SSW,212,5.8,8.7,15,0.00,,---,0.00,VWS V13.01,2013-05-26 03:20:00,
2013-05-25 20:40:00,76.1,25.1,17.72,SW,216,3.6,6.3,15,0.00,,---,0.00,VWS V13.01,2013-05-26 03:40:00,
2013-05-25 21:00:00,75.6,24.7,17.72,SW,221,4.0,7.6,15,0.00,,---,0.00,VWS V13.01,2013-05-26 04:00:00,
2013-05-25 21:20:00,74.8,25.7,17.72,SSW,213,3.6,7.2,16,0.00,,---,0.00,VWS V13.01,2013-05-26 04:20:00,
2013-05-25 21:40:00,74.5,25.4,17.72,SSW,213,5.4,8.3,16,0.00,,---,0.00,VWS V13.01,2013-05-26 04:40:00,
2013-05-25 22:00:00,73.8,24.8,17.72,SW,220,8.3,8.3,16,0.00,,---,0.00,VWS V13.01,2013-05-26 05:00:00,
2013-05-25 22:20:00,73.4,24.5,17.72,SW,223,3.6,8.3,16,0.00,,---,0.00,VWS V13.01,2013-05-26 05:20:00,
2013-05-25 22:40:00,73.2,24.4,17.72,SW,214,4.0,10.5,16,0.00,,---,0.00,VWS V13.01,2013-05-26 05:40:00,
2013-05-25 23:00:00,72.5,23.8,17.72,SW,232,4.0,6.7,16,0.00,,---,0.00,VWS V13.01,2013-05-26 06:00:00,
2013-05-25 23:20:00,71.6,23.1,17.72,SW,227,0.0,6.3,16,0.00,,---,0.00,VWS V13.01,2013-05-26 06:20:00,
2013-05-25 23:40:00,71.1,24.1,17.72,WSW,251,4.0,8.1,17,0.00,,---,0.00,VWS V13.01,2013-05-26 06:40:00,